Location: Alphen aan den Rijn
(52.1277°N, 4.6689°E)
Time: 00:04:43
(UTC+02:00)

Envisat - Pass Details

Date: 27 February 2018
Orbit: 764 x 766 km, 98.2° (Epoch: 17 June)

Event Time Altitude Azimuth Distance (km) Brightness Sun altitude
Rises 19:32:06 0° 152° (SSE) 3,221 5.9 -12.3°
Reaches altitude 10° 19:34:24 10° 150° (SSE) 2,299 5.2 -12.6°
Maximum altitude 19:39:24 62° 70° (ENE) 859 3.0 -13.4°
Drops below altitude 10° 19:44:26 10° 351° (N) 2,315 5.7 -14.2°
Sets 19:46:46 0° 348° (NNW) 3,246 6.5 -14.5°
